Home > Weather > Kansas City > Past weeks

Flag for USA Past Weather in Kansas City, Missouri, USA — Yesterday and Last 2 Weeks

Now
79 °F

Sunny.


Feels Like: 80 °F
Forecast: 64 / 85 °F
Wind: 3 mph from Southwest

Location: Kansas City Downtown Airport

Current Time: May 29, 2016 at 10:04:31 PM

Latest Report: May 29, 2016 at 8:54 PM


Visibility: 10 mi

Pressure: 29.99 "Hg

Humidity: 50%

Dew Point: 59 °F

Location of Kansas CityLocation

Past Weather in Kansas City — Graph

°F

Kansas City Temperature Yesterday

Maximum temperature yesterday: 78 °F (at 5:54 PM)
Minimum temperature yesterday: 61 °F (at 12:54 AM)
Average temperature yesterday: 69 °F

High & Low Weather Summary for the Past Weeks

 TemperatureHumidityPressure
High87 °F (May 29, 3:54 PM)100% (May 26, 11:54 PM)30.28 "Hg (May 26, 11:54 PM)
Low44 °F (May 15, 4:54 AM)29% (May 15, 1:54 PM)29.62 "Hg (May 27, 4:54 AM)
Average65 °F70%30.00 "Hg
* Reported May 14 8:54 PM — May 29 8:54 PM, Kansas City, Weather by CustomWeather, © 2016

Note: Actual official high and low records may vary slightly from our data, if they occured in-between our weather recording intervals... More about our weather records

Advertising

Kansas City Weather History for the Previous 24 Hours

Scroll right to see more
 ConditionsComfort  
Time TempWeatherWind HumidityBarometerVisibility
8:54 PM
Sun, May 29
79 °FSunny.3 mph50%29.99 "Hg10 mi
7:54 PM78 °FSunny.7 mph56%30.00 "Hg10 mi
6:54 PM81 °FSunny.7 mph47%30.00 "Hg10 mi
5:54 PM84 °FSunny.5 mph40%30.00 "Hg10 mi
4:54 PM85 °FSunny.6 mph37%30.02 "Hg10 mi
3:54 PM87 °FSunny.8 mph35%30.03 "Hg10 mi
2:54 PM86 °FPassing clouds.6 mph36%30.06 "Hg10 mi
1:54 PM85 °FSunny.5 mph37%30.06 "Hg10 mi
12:54 PM84 °FSunny.3 mph41%30.07 "Hg10 mi
11:54 AM82 °FSunny.3 mph46%30.09 "Hg10 mi
10:54 AM80 °FSunny.5 mph58%30.09 "Hg10 mi
9:54 AM78 °FSunny.7 mph54%30.08 "Hg10 mi
8:54 AM74 °FSunny.No wind69%30.07 "Hg10 mi
7:54 AM69 °FSunny.No wind79%30.06 "Hg10 mi
6:54 AM65 °FClear.No wind85%30.05 "Hg10 mi
5:54 AM63 °FClear.No wind90%30.03 "Hg10 mi
4:54 AM64 °FClear.No wind84%30.02 "Hg10 mi
3:54 AM64 °FClear.5 mph84%30.01 "Hg10 mi
2:54 AM66 °FClear.5 mph78%30.00 "Hg10 mi
1:54 AM67 °FClear.3 mph76%30.00 "Hg10 mi
12:54 AM67 °FClear.5 mph79%30.00 "Hg10 mi
11:54 PM
Sat, May 28
69 °FClear.No wind73%29.98 "Hg10 mi
10:54 PM70 °FClear.5 mph68%29.98 "Hg10 mi
Weather by CustomWeather, © 2016

See weather overviewHow to use our weather pages